Location: Cremona
(45.1170°N, 10.0330°E)
Time: 05:06:54
(UTC+01:00)

ISS - Pass Details

Date: 27 January 2019
Orbit: 403 x 411 km, 51.6° (Epoch: 17 February)

Event Time Altitude Azimuth Distance (km) Brightness Sun altitude
Rises 19:57:33 0° 281° (W) 2,337 1.3 -27.8°
Reaches altitude 10° 19:59:51 10° 295° (WNW) 1,478 -0.2 -28.2°
Enters shadow 20:00:41 15° 304° (NW) 1,206 -0.8 -28.3°
